Location: Dumpton Point
(51.3500°N, 1.4433°E)
Time: 06:34:10
(UTC+00:00)

STARLINK-1217 - Pass Details

Date: 09 April 2020
Orbit: 378 x 381 km, 53.0° (Epoch: 02 June)

Event Time Altitude Azimuth Distance (km) Brightness Sun altitude
Rises 19:42:15 0° 288° (WNW) 2,266 8.9 -9.7°
Reaches altitude 10° 19:44:22 10° 281° (W) 1,409 7.1 -10.0°
Maximum altitude 19:47:21 40° 209° (SSW) 576 3.7 -10.4°
Enters shadow 19:49:37 15° 143° (SE) 1,134 4.7 -10.8°
